Tracking 29892 objects as of 21-Nov-2024
HD Live streaming from Space Station
objects crossing your sky now

STARLINK-31519

Track STARLINK-31519 now!
10-day predictions
STARLINK-31519 is classified as:


NORAD ID: 59546
Int'l Code: 2024-074N
Perigee: 449.7 km
Apogee: 452.8 km
Inclination: 43.0 °
Period: 93.5 minutes
Semi major axis: 6822 km
RCS: Unknown
Launch date: April 18, 2024
Source: United States (US)
Launch site: AIR FORCE EASTERN TEST RANGE (AFETR)
Your satellite tracking list
Your tracking list is empty




NASA's NSSDC Master Catalog

Two Line Element Set (TLE):
1 59546U 24074N   24325.89599349 -.00001182  00000-0 -21032-4 0  9994
2 59546  42.9985 152.2521 0002250 252.0829 107.9782 15.40679809 33406
Source of the keplerian elements: AFSPC